TimeEDT,TemperatureF,Dew PointF,Humidity,Sea Level PressureIn,VisibilityMPH,Wind Direction,Wind SpeedMPH,Gust SpeedMPH,PrecipitationIn,Events,Conditions,WindDirDegrees,DateUTC
12:51 AM,44.6,28.4,53,30.13,10.0,NW,8.1,-,N/A,,Partly Cloudy,320,2013-03-30 04:51:00
1:51 AM,44.1,27.0,51,30.13,10.0,WNW,8.1,-,N/A,,Partly Cloudy,290,2013-03-30 05:51:00
2:51 AM,44.6,28.4,53,30.12,10.0,WNW,6.9,-,N/A,,Clear,300,2013-03-30 06:51:00
3:51 AM,43.0,28.9,58,30.12,10.0,NW,13.8,-,N/A,,Clear,310,2013-03-30 07:51:00
4:51 AM,42.8,28.4,57,30.13,10.0,WNW,10.4,-,N/A,,Partly Cloudy,300,2013-03-30 08:51:00
5:51 AM,42.1,28.9,60,30.13,10.0,WNW,11.5,-,N/A,,Clear,300,2013-03-30 09:51:00
6:51 AM,42.1,28.9,60,30.14,10.0,WNW,12.7,-,N/A,,Scattered Clouds,300,2013-03-30 10:51:00
7:51 AM,42.8,28.4,57,30.16,10.0,NW,11.5,-,N/A,,Partly Cloudy,310,2013-03-30 11:51:00
8:51 AM,44.1,28.9,55,30.16,10.0,NW,10.4,-,N/A,,Partly Cloudy,310,2013-03-30 12:51:00
9:51 AM,46.9,28.9,50,30.16,10.0,NW,9.2,-,N/A,,Partly Cloudy,310,2013-03-30 13:51:00
10:51 AM,50.0,26.1,39,30.16,10.0,WNW,4.6,-,N/A,,Scattered Clouds,300,2013-03-30 14:51:00
11:51 AM,51.8,23.0,33,30.14,10.0,West,6.9,-,N/A,,Scattered Clouds,280,2013-03-30 15:51:00
12:51 PM,53.6,21.2,28,30.13,10.0,NW,8.1,17.3,N/A,,Scattered Clouds,310,2013-03-30 16:51:00
1:51 PM,54.0,19.9,26,30.10,10.0,North,4.6,-,N/A,,Mostly Cloudy,360,2013-03-30 17:51:00
2:51 PM,55.9,19.0,24,30.08,10.0,WNW,12.7,-,N/A,,Mostly Cloudy,300,2013-03-30 18:51:00
3:51 PM,55.0,17.1,23,30.07,10.0,NW,10.4,-,N/A,,Mostly Cloudy,310,2013-03-30 19:51:00
4:51 PM,55.9,18.0,23,30.06,10.0,WNW,9.2,-,N/A,,Mostly Cloudy,300,2013-03-30 20:51:00
5:51 PM,57.0,15.1,19,30.07,10.0,Calm,Calm,-,N/A,,Scattered Clouds,0,2013-03-30 21:51:00
6:51 PM,53.6,26.6,35,30.07,10.0,South,11.5,-,N/A,,Scattered Clouds,170,2013-03-30 22:51:00
7:51 PM,50.0,28.9,44,30.09,10.0,South,8.1,-,N/A,,Partly Cloudy,180,2013-03-30 23:51:00
8:51 PM,50.0,30.2,47,30.10,10.0,SSE,4.6,-,N/A,,Clear,160,2013-03-31 00:51:00
9:51 PM,48.9,32.0,52,30.11,10.0,SE,3.5,-,N/A,,Clear,130,2013-03-31 01:51:00
10:51 PM,48.0,34.0,58,30.12,10.0,Calm,Calm,-,N/A,,Clear,0,2013-03-31 02:51:00
11:51 PM,46.9,34.0,61,30.12,10.0,Calm,Calm,-,N/A,,Clear,0,2013-03-31 03:51:00